[[{"header":{"parameterUnit":"m.s-1","parameterCategory":1,"la1":30.2991,"la2":30.254,"lo1":-89.0895,"lo2":-89.0444,"dy":0.0017,"dx":0.0017,"nx":28,"ny":28,"refTime":"2025-03-16T21:00:00:Z","depth":0,"parameterNumber":2,"parameterNumberName":"U-component_of_WINDS"},"data":[0,0,0,0,0,0,0,0,0,0,0,0,0,0,0,0,0,0,0,0,0,0,0,0,0,0,0,0,0,0,0,0,0,0,0,0,0,0,0,0,0,0,0,0,0,0,0,0,0,0,0,0,0,0,0,0,0,0,-0.5719,-0.572,0,-0.5832,-0.5833,-0.5834,-0.5908,-0.5908,-0.5909,-0.5909,-0.6025,-0.6027,-0.603,0,0,0,0,0,0,0,0,0,0,0,0,0,-0.5567,-0.5569,-0.5719,-0.572,-0.5722,-0.5832,-0.5833,-0.5835,-0.5908,-0.5908,-0.5909,-0.5909,-0.6024,-0.6027,-0.603,0,0,0,0,0,0,0,0,0,0,0,0,0,-0.5651,-0.557,-0.5719,-0.5771,-0.5777,-0.5831,-0.5833,-0.5835,-0.5908,-0.5908,-0.5909,-0.591,-0.6023,-0.6027,-0.603,-0.6041,0,0,-0.6043,-0.6044,0,0,0,0,0,0,0,0,-0.5647,-0.5657,-0.5762,-0.5768,-0.5775,-0.5857,-0.5822,-0.5904,-0.5908,-0.5858,-0.5909,-0.591,-0.5968,-0.5977,-0.5996,-0.6046,-0.6051,-0.6043,-0.6045,-0.6047,-0.6048,0,0,0,0,0,0,0,-0.5641,-0.5653,-0.5764,-0.5764,-0.5771,-0.579,-0.5802,-0.5838,-0.5908,-0.5863,-0.5868,-0.588,-0.5972,-0.5992,-0.5999,-0.6053,-0.6043,-0.6046,-0.6049,-0.605,-0.6118,-0.6117,0,0,0,0,0,0,-0.5626,-0.5647,-0.576,-0.5767,-0.5711,-0.5792,-0.5806,-0.5829,-0.5908,-0.592,-0.588,-0.5883,-0.5985,-0.5995,-0.6004,-0.6021,-0.6047,-0.6051,-0.6053,-0.6118,-0.6118,-0.6117,0,0,0,0,0,0,-0.5623,-0.5636,-0.5755,-0.5709,-0.5725,-0.5794,-0.5819,-0.5831,-0.5852,-0.5921,-0.5934,-0.5888,-0.5986,-0.5998,-0.6031,-0.6026,-0.6052,-0.6056,-0.6119,-0.6118,-0.6117,-0.6056,0,0,0,0,0,0,-0.5618,-0.5634,-0.5638,-0.5708,-0.5728,-0.5781,-0.5819,-0.5833,-0.5859,-0.5865,-0.5932,-0.5944,-0.5988,-0.6025,-0.6035,-0.6032,-0.6059,-0.612,-0.6119,-0.6118,-0.6059,-0.6053,-0.6049,0,0,0,0,0,-0.5612,-0.5617,-0.5638,-0.5652,-0.5735,-0.578,-0.5791,-0.5842,-0.5858,-0.5863,-0.5907,-0.5941,-0.6025,-0.6028,-0.604,-0.6038,-0.612,-0.6119,-0.6118,-0.6061,-0.6054,-0.6049,0,0,0,0,0,0,-0.5544,-0.5627,-0.5652,-0.5679,-0.5722,-0.5793,-0.5801,-0.5833,-0.5873,-0.5876,-0.5938,-0.5952,-0.5979,-0.6012,-0.6013,-0.6053,-0.6077,-0.6078,-0.603,-0.6024,-0.6019,-0.601,-0.6062,0,0,0,0,0,-0.5532,-0.5563,-0.5633,-0.565,-0.567,-0.5731,-0.5753,-0.5789,-0.5836,-0.5855,-0.5901,-0.5946,-0.5983,-0.6005,-0.6043,-0.6064,-0.608,-0.6069,-0.6064,-0.6059,-0.6059,-0.6074,-0.607,-0.6113,-0.6113,-0.6113,0,0,-0.5508,-0.5557,-0.5572,-0.5638,-0.5675,-0.5705,-0.5746,-0.5776,-0.5799,-0.5859,-0.5893,-0.5929,-0.5983,-0.601,-0.6025,-0.6039,-0.6051,-0.6058,-0.6054,-0.6056,-0.6072,-0.6068,-0.6064,-0.6112,-0.6112,-0.6112,0,0,-0.5479,-0.5519,-0.5538,-0.5575,-0.5631,-0.5672,-0.5677,-0.5743,-0.5769,-0.5804,-0.585,-0.5878,-0.594,-0.5976,-0.6003,-0.5988,-0.6021,-0.5999,-0.5971,-0.5985,-0.5981,-0.5979,-0.5973,-0.5971,-0.5999,-0.5999,-0.5999,0,-0.5442,-0.5489,-0.5543,-0.557,-0.5598,-0.5654,-0.5673,-0.5707,-0.5772,-0.579,-0.5805,-0.5884,-0.5924,-0.5961,-0.5957,-0.5977,-0.5984,-0.5991,-0.5977,-0.5975,-0.5973,-0.5969,-0.5967,-0.5995,-0.5996,-0.5996,-0.5996,0,-0.544,-0.5472,-0.548,-0.5542,-0.5571,-0.5594,-0.5652,-0.5675,-0.5707,-0.5747,-0.5782,-0.5832,-0.5881,-0.5893,-0.5925,-0.5934,-0.5941,-0.5966,-0.5991,-0.5965,-0.5962,-0.5961,-0.5991,-0.5992,-0.5993,-0.5994,0,0,-0.537,-0.5463,-0.5465,-0.5494,-0.5561,-0.5587,-0.5613,-0.5661,-0.5679,-0.5723,-0.5746,-0.5797,-0.5821,-0.5851,-0.5888,-0.5899,-0.5885,-0.5923,-0.5925,-0.5914,-0.5898,-0.5879,-0.5876,-0.5907,-0.5907,-0.5907,-0.5894,0,-0.5351,-0.54,-0.545,-0.5482,-0.5512,-0.5567,-0.5589,-0.5633,-0.567,-0.5702,-0.5743,-0.5778,-0.5807,-0.5825,-0.5839,-0.5883,-0.5882,-0.5885,-0.5929,-0.593,-0.5914,-0.5875,-0.5854,-0.5839,-0.5893,-0.5893,-0.5893,0,-0.5335,-0.5377,-0.5411,-0.5476,-0.5491,-0.551,-0.5558,-0.5587,-0.5638,-0.5665,-0.5698,-0.5738,-0.5768,-0.5791,-0.5833,-0.5834,-0.5855,-0.5879,-0.588,-0.5886,-0.5909,-0.5879,-0.5836,-0.5833,-0.5891,-0.5891,-0.5891,0,-0.5281,-0.5345,-0.5375,-0.5398,-0.5474,-0.5486,-0.5519,-0.557,-0.5596,-0.5638,-0.5656,-0.57,-0.5725,-0.5759,-0.581,-0.5821,-0.5847,-0.5873,-0.5869,-0.5868,-0.5872,-0.5871,-0.5831,-0.5886,-0.5886,-0.5886,-0.5886,0,-0.5254,-0.5273,-0.5351,-0.5369,-0.5392,-0.545,-0.5471,-0.5508,-0.5553,-0.558,-0.5629,-0.5653,-0.5718,-0.575,-0.579,-0.5819,-0.583,-0.5852,-0.5862,-0.5847,-0.5844,-0.5862,-0.5864,-0.5885,-0.5885,-0.5886,-0.5886,0,-0.5197,-0.525,-0.5285,-0.5355,-0.5373,-0.5387,-0.5446,-0.5466,-0.5506,-0.5539,-0.555,-0.5613,-0.5653,-0.5707,-0.5763,-0.579,-0.5814,-0.583,-0.5796,-0.5802,-0.5795,-0.5795,-0.5765,-0.5764,-0.5819,-0.5818,-0.5818,0,-0.5176,-0.5192,-0.5263,-0.5284,-0.5315,-0.5348,-0.5375,-0.5433,-0.5458,-0.5518,-0.553,-0.5573,-0.5611,-0.5672,-0.5723,-0.5766,-0.5784,-0.5771,-0.5791,-0.5775,-0.5784,-0.5782,-0.5784,-0.5765,-0.5764,-0.5764,-0.5763,0,-0.5133,-0.5159,-0.5195,-0.5241,-0.5272,-0.531,-0.5352,-0.5366,-0.5432,-0.5459,-0.55,-0.5529,-0.5587,-0.5629,-0.568,-0.5713,-0.5749,-0.5756,-0.5758,-0.5742,-0.5722,-0.5733,-0.5782,-0.5757,-0.5757,-0.5758,-0.5758,-0.5758,-0.5094,-0.511,-0.5163,-0.5202,-0.524,-0.5277,-0.5299,-0.5342,-0.5378,-0.5429,-0.5461,-0.5501,-0.5552,-0.5623,-0.5655,-0.5687,-0.5701,-0.5703,-0.5704,-0.5703,-0.5698,-0.5717,-0.5696,-0.5697,-0.5697,-0.5697,-0.5697,0,-0.5053,-0.509,-0.5126,-0.5182,-0.5213,-0.5244,-0.5292,-0.5315,-0.535,-0.5394,-0.5431,-0.5478,-0.5519,-0.5574,-0.562,-0.5635,-0.5652,-0.5645,-0.5644,-0.5651,-0.5683,-0.5677,-0.563,-0.563,-0.563,-0.563,-0.563,-0.563,-0.5036,-0.5066,-0.5098,-0.5147,-0.5185,-0.5224,-0.5248,-0.5283,-0.5319,-0.537,-0.5404,-0.544,-0.5489,-0.5538,-0.5578,-0.5593,-0.5607,-0.5595,-0.5614,-0.5643,-0.5649,-0.5655,-0.5649,-0.5597,-0.5597,-0.558,-0.558,-0.558]},{"header":{"parameterUnit":"m.s-1","parameterCategory":1,"la1":30.2991,"la2":30.254,"lo1":-89.0895,"lo2":-89.0444,"dy":0.0017,"dx":0.0017,"nx":28,"ny":28,"refTime":"2025-03-16T21:00:00:Z","depth":0,"parameterNumber":3,"parameterNumberName":"V-component_of_WINDS"},"data":[0,0,0,0,0,0,0,0,0,0,0,0,0,0,0,0,0,0,0,0,0,0,0,0,0,0,0,0,0,0,0,0,0,0,0,0,0,0,0,0,0,0,0,0,0,0,0,0,0,0,0,0,0,0,0,0,0,0,0.0946,0.0945,0,0.0897,0.0896,0.0896,0.0866,0.0866,0.0865,0.0865,0.081,0.0809,0.0808,0,0,0,0,0,0,0,0,0,0,0,0,0,0.101,0.1009,0.0946,0.0945,0.0945,0.0897,0.0896,0.0895,0.0866,0.0865,0.0865,0.0865,0.0811,0.0809,0.0808,0,0,0,0,0,0,0,0,0,0,0,0,0,0.0973,0.1008,0.0946,0.0924,0.0922,0.0897,0.0896,0.0895,0.0866,0.0865,0.0865,0.0865,0.0811,0.0809,0.0807,0.0799,0,0,0.0801,0.08,0,0,0,0,0,0,0,0,0.0975,0.0971,0.0928,0.0926,0.0923,0.0887,0.0898,0.0863,0.0866,0.0887,0.0865,0.0865,0.0836,0.0832,0.0823,0.0796,0.0794,0.0801,0.08,0.0799,0.0798,0,0,0,0,0,0,0,0.0978,0.0973,0.0926,0.0927,0.0924,0.0915,0.091,0.0891,0.0863,0.0885,0.0883,0.0878,0.0834,0.0825,0.0821,0.0793,0.0801,0.0799,0.0798,0.0797,0.0756,0.0756,0,0,0,0,0,0,0.0985,0.0975,0.0928,0.0925,0.0949,0.0914,0.0908,0.0899,0.0863,0.0857,0.0878,0.0876,0.0828,0.0824,0.0819,0.0807,0.0799,0.0797,0.0796,0.0756,0.0756,0.0757,0,0,0,0,0,0,0.0986,0.0981,0.093,0.0949,0.0942,0.0914,0.0903,0.0898,0.0888,0.0858,0.0852,0.0874,0.0828,0.0822,0.0804,0.0804,0.0796,0.0794,0.0756,0.0756,0.0756,0.0782,0,0,0,0,0,0,0.0988,0.0981,0.0979,0.095,0.0941,0.0917,0.0903,0.0897,0.0886,0.0883,0.0852,0.0847,0.0827,0.0808,0.0802,0.0801,0.0793,0.0756,0.0756,0.0756,0.0781,0.0783,0.0785,0,0,0,0,0,0.099,0.0987,0.0979,0.0974,0.0938,0.0918,0.0913,0.0892,0.0886,0.0882,0.0862,0.0848,0.0805,0.0806,0.08,0.0798,0.0756,0.0756,0.0756,0.078,0.0783,0.0785,0,0,0,0,0,0,0.1016,0.0983,0.0974,0.0961,0.0943,0.0913,0.0908,0.0895,0.0876,0.0875,0.0848,0.0841,0.0826,0.081,0.0812,0.0788,0.0779,0.0778,0.0799,0.0801,0.0803,0.0807,0.0791,0,0,0,0,0,0.1021,0.1008,0.0979,0.0971,0.0962,0.0937,0.0927,0.0912,0.0891,0.0883,0.0862,0.084,0.0822,0.0811,0.0792,0.0779,0.0771,0.0774,0.0776,0.0778,0.0777,0.0768,0.0769,0.0757,0.0757,0.0757,0,0,0.1029,0.101,0.1003,0.0976,0.096,0.0946,0.093,0.0916,0.0905,0.088,0.0863,0.0846,0.0821,0.0805,0.0797,0.0791,0.0779,0.0778,0.078,0.0778,0.0769,0.077,0.0771,0.0758,0.0758,0.0758,0,0,0.1038,0.1022,0.1014,0.0998,0.0974,0.0957,0.0955,0.0927,0.0916,0.0898,0.0879,0.0864,0.0834,0.0816,0.0803,0.0805,0.079,0.0799,0.0809,0.0801,0.0802,0.0802,0.0802,0.0803,0.0799,0.0799,0.0799,0,0.1051,0.1031,0.101,0.0998,0.0986,0.0964,0.0954,0.0939,0.091,0.0902,0.0896,0.0857,0.0838,0.0818,0.0819,0.0809,0.0805,0.0803,0.0803,0.0804,0.0804,0.0804,0.0804,0.08,0.08,0.08,0.08,0,0.1049,0.1035,0.1031,0.1005,0.0992,0.0981,0.0957,0.0946,0.0933,0.0916,0.0897,0.0874,0.085,0.0844,0.083,0.0822,0.0819,0.0809,0.0799,0.0807,0.0806,0.0806,0.0802,0.0802,0.0801,0.0801,0,0,0.1072,0.1035,0.1034,0.1022,0.0994,0.0982,0.0969,0.0947,0.0939,0.0919,0.0907,0.0881,0.0872,0.0857,0.0841,0.0833,0.0835,0.0824,0.0823,0.0826,0.0824,0.0832,0.0832,0.0826,0.0826,0.0826,0.0826,0,0.1077,0.1055,0.1036,0.102,0.1006,0.0985,0.0973,0.0954,0.0938,0.0923,0.0904,0.0886,0.0875,0.0866,0.0858,0.0837,0.0834,0.0837,0.0813,0.0812,0.082,0.0832,0.084,0.0841,0.0825,0.0825,0.0825,0,0.108,0.1062,0.1046,0.1019,0.1013,0.1003,0.0981,0.0968,0.0945,0.0933,0.0917,0.09,0.0884,0.0876,0.0852,0.0854,0.0843,0.0831,0.0831,0.0827,0.0819,0.0828,0.0841,0.0841,0.0825,0.0825,0.0825,0,0.1098,0.1071,0.1057,0.1047,0.1016,0.1009,0.0996,0.0973,0.0961,0.0941,0.0933,0.0911,0.0899,0.0881,0.0858,0.0855,0.0837,0.0827,0.0826,0.0826,0.0823,0.0824,0.0834,0.0816,0.0816,0.0816,0.0816,0,0.1105,0.1096,0.1065,0.1057,0.1046,0.1022,0.1011,0.0995,0.0975,0.0962,0.0941,0.0929,0.0899,0.0883,0.0865,0.0848,0.0842,0.0831,0.0827,0.0833,0.0835,0.0825,0.0825,0.0816,0.0816,0.0816,0.0816,0,0.1125,0.1104,0.1088,0.1059,0.1052,0.1044,0.1019,0.1009,0.0992,0.0976,0.097,0.0942,0.0922,0.0898,0.0869,0.0857,0.0841,0.0834,0.085,0.0847,0.0847,0.0847,0.0852,0.0851,0.0834,0.0834,0.0835,0,0.113,0.1123,0.1094,0.1085,0.1072,0.1057,0.1045,0.1021,0.1009,0.0983,0.0976,0.0954,0.0936,0.0905,0.088,0.0858,0.085,0.0853,0.0847,0.0853,0.085,0.085,0.0849,0.0855,0.0855,0.0856,0.0856,0,0.1143,0.1133,0.1118,0.1098,0.1085,0.1068,0.105,0.1043,0.1016,0.1003,0.0983,0.0969,0.094,0.0919,0.0894,0.0877,0.0861,0.0858,0.0857,0.0863,0.0872,0.0867,0.0854,0.0858,0.0858,0.0858,0.0858,0.0857,0.1155,0.1148,0.1126,0.1109,0.1094,0.1077,0.1067,0.1049,0.1032,0.1008,0.0995,0.0975,0.0951,0.0916,0.09,0.0883,0.0877,0.0875,0.0874,0.0874,0.0876,0.0876,0.0878,0.0878,0.0878,0.0878,0.0878,0,0.1167,0.1152,0.1137,0.1113,0.1099,0.1087,0.1067,0.1056,0.1039,0.1019,0.1002,0.0978,0.0957,0.0932,0.0909,0.09,0.0892,0.0894,0.0894,0.0891,0.0883,0.0886,0.0901,0.0901,0.0901,0.0901,0.0901,0.0901,0.1171,0.1157,0.1145,0.1122,0.1107,0.1089,0.1078,0.1062,0.1046,0.1022,0.1005,0.0989,0.0966,0.0941,0.092,0.0913,0.0905,0.091,0.0901,0.0894,0.0891,0.089,0.0893,0.0909,0.0909,0.091,0.091,0.091]}]]